Weather History for KGKY - July, 2013

Change the Weather History Date:

Sunday, July 28, 2013

  Actual Average (KRBD) Record (KRBD)
Temperature  
Mean Temperature 78 °F -  
Max Temperature 93 °F 95 °F 105 °F (1998)
Min Temperature 64 °F 74 °F 69 °F (2013)
Cooling Degree Days 12    
Growing Degree Days 28 (Base 50)    
Moisture  
Dew Point 67 °F    
Average Humidity 67    
Maximum Humidity 97    
Minimum Humidity 44    
Precipitation  
Precipitation 0.00 in - - ()
Sea Level Pressure  
Sea Level Pressure 29.92 in    
Wind  
Wind Speed 5 mph (ESE)    
Max Wind Speed 17 mph    
Max Gust Speed 22 mph    
Visibility 10 miles    
Events      
Averages and records for this station are not official NWS values.
T = Trace of Precipitation, MM = Missing Value Source: NWS Daily Summary

Daily Weather History Graph

Daily Weather History Graph

Search for Another Location

Airport or City:

Trip Planner

Search our weather history database for the weather conditions in past years. The results will help you decide how hot, cold, wet, or windy it might be!

Date:

Astronomy

Jul. 28, 2013 Rise Set
Actual Time 6:39 AM CDT 8:29 PM CDT
Civil Twilight 6:12 AM CDT 8:56 PM CDT
Nautical Twilight 5:40 AM CDT 9:29 PM CDT
Astronomical Twilight 5:05 AM CDT 10:03 PM CDT
Moon No Moon Rise 12:57 PM CDT (7/28)
Length of Visible Light 14h 43m
Length of Day
13h 49m
Waning Gibbous, 60% of the Moon is Illuminated
Jul 28
Waning Gibbous
Jul 29
Last Quarter
Aug 6
New
Aug 14
First Quarter
Aug 20
Full

Hourly Weather History & Observations

Time (CDT) Temp. Heat Index Dew Point Humidity Pressure Visibility Wind Dir Wind Speed Gust Speed Precip Events Conditions
12:53 AM 73.9 °F - 64.9 °F 73% 29.95 in 10.0 mi SSE 3.5 mph - N/A   Clear
1:53 AM 69.1 °F - 64.9 °F 87% 29.94 in 10.0 mi Calm Calm - N/A   Clear
2:53 AM 68.0 °F - 64.9 °F 90% 29.94 in 10.0 mi Calm Calm - N/A   Clear
3:53 AM 66.9 °F - 64.9 °F 93% 29.93 in 10.0 mi Calm Calm - N/A   Clear
4:53 AM 66.0 °F - 64.0 °F 93% 29.93 in 10.0 mi Calm Calm - N/A   Clear
5:53 AM 64.9 °F - 64.0 °F 97% 29.94 in 10.0 mi Calm Calm - N/A   Clear
6:53 AM 64.9 °F - 63.0 °F 93% 29.95 in 10.0 mi Calm Calm - N/A   Clear
7:53 AM 71.1 °F - 68.0 °F 90% 29.96 in 10.0 mi Calm Calm - N/A   Clear
8:53 AM 75.0 °F - 68.0 °F 79% 29.97 in 10.0 mi SSE 9.2 mph - N/A   Clear
9:53 AM 79.0 °F - 68.0 °F 69% 29.97 in 10.0 mi East 6.9 mph - N/A   Clear
10:53 AM 82.0 °F 84.5 °F 66.9 °F 60% 29.97 in 10.0 mi East 11.5 mph - N/A   Mostly Cloudy
11:53 AM 82.9 °F 85.4 °F 66.9 °F 58% 29.96 in 10.0 mi ESE 5.8 mph - N/A   Clear
12:53 PM 86.0 °F 88.8 °F 66.9 °F 53% 29.95 in 10.0 mi East 4.6 mph - N/A   Scattered Clouds
1:53 PM 87.1 °F 89.9 °F 66.9 °F 51% 29.93 in 10.0 mi ESE 10.4 mph - N/A   Mostly Cloudy
2:53 PM 88.0 °F 90.7 °F 66.9 °F 49% 29.91 in 10.0 mi East 10.4 mph - N/A   Mostly Cloudy
3:53 PM 90.0 °F 92.4 °F 66.0 °F 45% 29.89 in 10.0 mi ESE 10.4 mph 21.9 mph N/A   Partly Cloudy
4:53 PM 91.0 °F 94.3 °F 66.9 °F 45% 29.87 in 10.0 mi East 9.2 mph - N/A   Scattered Clouds
5:53 PM 91.9 °F 95.4 °F 66.9 °F 44% 29.86 in 10.0 mi ESE 8.1 mph - N/A   Clear
6:53 PM 91.0 °F 94.3 °F 66.9 °F 45% 29.85 in 10.0 mi SE 12.7 mph 20.7 mph N/A   Partly Cloudy
7:53 PM 89.1 °F 92.9 °F 68.0 °F 50% 29.87 in 10.0 mi ESE 10.4 mph - N/A   Clear
8:53 PM 86.0 °F 89.4 °F 68.0 °F 55% 29.88 in 10.0 mi ESE 8.1 mph - N/A   Clear
9:53 PM 84.9 °F 88.8 °F 69.1 °F 59% 29.89 in 10.0 mi ESE 6.9 mph - N/A   Clear
10:53 PM 84.0 °F 89.0 °F 71.1 °F 65% 29.91 in 10.0 mi ESE 17.3 mph 21.9 mph N/A   Clear
11:53 PM 82.9 °F 88.0 °F 72.0 °F 69% 29.91 in 10.0 mi ESE 13.8 mph - N/A   Clear